Tabellarische Ansicht des 20.7.2019


Die einzelnen Werte des Tages

Uhrzeit Temperatur Luftdruck Luftfeuchte Wind Hi-Wind Taupunkt THW Index Wind Chill Heat Index Solar- strahlung Regen

00:00

16.5 C

1010.2 hpa

79 %

3.2 km/h aus 117

6.4 km/h aus ESE

12.8 C

16.6 C

16.5 C

16.6 C

0 W/m

0.00 mm

00:05

16.4 C

1010.2 hpa

80 %

3.2 km/h aus 115

4.8 km/h aus ESE

13.0 C

16.5 C

16.4 C

16.5 C

0 W/m

0.00 mm

00:10

16.3 C

1010.2 hpa

80 %

3.2 km/h aus 116

4.8 km/h aus ESE

12.9 C

16.4 C

16.3 C

16.4 C

0 W/m

0.00 mm

00:15

16.3 C

1010.2 hpa

80 %

3.2 km/h aus 116

6.4 km/h aus ESE

12.8 C

16.3 C

16.3 C

16.3 C

0 W/m

0.00 mm

00:20

16.2 C

1010.2 hpa

80 %

3.2 km/h aus 115

4.8 km/h aus ESE

12.8 C

16.2 C

16.2 C

16.2 C

0 W/m

0.00 mm

00:25

16.2 C

1010.2 hpa

80 %

3.2 km/h aus 116

4.8 km/h aus ESE

12.7 C

16.2 C

16.2 C

16.2 C

0 W/m

0.00 mm

00:30

16.1 C

1010.2 hpa

80 %

3.2 km/h aus 117

4.8 km/h aus ESE

12.6 C

16.1 C

16.1 C

16.1 C

0 W/m

0.00 mm

00:35

16.0 C

1010.2 hpa

80 %

3.2 km/h aus 117

3.2 km/h aus ESE

12.5 C

16.0 C

16.0 C

16.0 C

0 W/m

0.00 mm

00:40

15.9 C

1010.2 hpa

80 %

1.6 km/h aus 116

3.2 km/h aus ESE

12.5 C

15.9 C

15.9 C

15.9 C

0 W/m

0.00 mm

00:45

15.8 C

1010.3 hpa

80 %

3.2 km/h aus 115

4.8 km/h aus ESE

12.4 C

15.8 C

15.8 C

15.8 C

0 W/m

0.00 mm

00:50

15.8 C

1010.3 hpa

80 %

3.2 km/h aus 117

4.8 km/h aus ESE

12.3 C

15.7 C

15.8 C

15.7 C

0 W/m

0.00 mm

00:55

15.7 C

1010.3 hpa

80 %

1.6 km/h aus 117

3.2 km/h aus ESE

12.3 C

15.7 C

15.7 C

15.7 C

0 W/m

0.00 mm

01:00

15.7 C

1010.3 hpa

80 %

1.6 km/h aus 117

3.2 km/h aus ESE

12.2 C

15.6 C

15.7 C

15.6 C

0 W/m

0.00 mm

01:05

15.6 C

1010.3 hpa

80 %

1.6 km/h aus 115

3.2 km/h aus ESE

12.1 C

15.5 C

15.6 C

15.5 C

0 W/m

0.00 mm

01:10

15.5 C

1010.3 hpa

81 %

3.2 km/h aus 114

3.2 km/h aus ESE

12.3 C

15.4 C

15.5 C

15.4 C

0 W/m

0.00 mm

01:15

15.4 C

1010.2 hpa

81 %

3.2 km/h aus 117

4.8 km/h aus ESE

12.2 C

15.4 C

15.4 C

15.4 C

0 W/m

0.00 mm

01:20

15.4 C

1010.2 hpa

81 %

3.2 km/h aus 117

6.4 km/h aus ESE

12.1 C

15.3 C

15.4 C

15.3 C

0 W/m

0.00 mm

01:25

15.3 C

1010.2 hpa

81 %

4.8 km/h aus 117

6.4 km/h aus ESE

12.1 C

15.3 C

15.3 C

15.3 C

0 W/m

0.00 mm

01:30

15.2 C

1010.1 hpa

81 %

3.2 km/h aus 114

6.4 km/h aus ESE

12.0 C

15.2 C

15.2 C

15.2 C

0 W/m

0.00 mm

01:35

15.2 C

1010.1 hpa

81 %

3.2 km/h aus 115

4.8 km/h aus ESE

11.9 C

15.1 C

15.2 C

15.1 C

0 W/m

0.00 mm

01:40

15.2 C

1010.1 hpa

82 %

3.2 km/h aus 117

6.4 km/h aus ESE

12.1 C

15.1 C

15.2 C

15.1 C

0 W/m

0.00 mm

01:45

15.2 C

1010.1 hpa

83 %

3.2 km/h aus 118

3.2 km/h aus ESE

12.3 C

15.1 C

15.2 C

15.1 C

0 W/m

0.00 mm

01:50

15.2 C

1010.1 hpa

83 %

1.6 km/h aus 117

4.8 km/h aus ESE

12.3 C

15.1 C

15.2 C

15.1 C

0 W/m

0.00 mm

01:55

15.2 C

1010.1 hpa

83 %

3.2 km/h aus 115

4.8 km/h aus ESE

12.4 C

15.2 C

15.2 C

15.2 C

0 W/m

0.00 mm

02:00

15.2 C

1010.0 hpa

83 %

1.6 km/h aus 115

3.2 km/h aus ESE

12.3 C

15.1 C

15.2 C

15.1 C

0 W/m

0.00 mm

02:05

15.2 C

1010.0 hpa

84 %

1.6 km/h aus 116

3.2 km/h aus ESE

12.5 C

15.2 C

15.2 C

15.2 C

0 W/m

0.00 mm

02:10

15.2 C

1010.0 hpa

84 %

3.2 km/h aus 117

4.8 km/h aus ESE

12.5 C

15.2 C

15.2 C

15.2 C

0 W/m

0.00 mm

02:15

15.2 C

1010.1 hpa

84 %

3.2 km/h aus 117

4.8 km/h aus ESE

12.5 C

15.2 C

15.2 C

15.2 C

0 W/m

0.00 mm

02:20

15.2 C

1010.1 hpa

84 %

3.2 km/h aus 115

4.8 km/h aus ESE

12.5 C

15.2 C

15.2 C

15.2 C

0 W/m

0.00 mm

02:25

15.1 C

1010.1 hpa

85 %

3.2 km/h aus 114

6.4 km/h aus ESE

12.6 C

15.1 C

15.1 C

15.1 C

0 W/m

0.00 mm

02:30

15.1 C

1009.9 hpa

85 %

3.2 km/h aus 117

4.8 km/h aus ESE

12.6 C

15.1 C

15.1 C

15.1 C

0 W/m

0.00 mm

02:35

15.1 C

1009.9 hpa

84 %

3.2 km/h aus 115

6.4 km/h aus ESE

12.4 C

15.1 C

15.1 C

15.1 C

0 W/m

0.00 mm

02:40

15.0 C

1009.9 hpa

84 %

3.2 km/h aus 117

4.8 km/h aus ESE

12.3 C

15.0 C

15.0 C

15.0 C

0 W/m

0.00 mm

02:45

14.9 C

1009.9 hpa

84 %

3.2 km/h aus 115

4.8 km/h aus ESE

12.3 C

14.9 C

14.9 C

14.9 C

0 W/m

0.00 mm

02:50

14.9 C

1009.9 hpa

85 %

3.2 km/h aus 115

6.4 km/h aus ESE

12.4 C

14.9 C

14.9 C

14.9 C

0 W/m

0.00 mm

02:55

14.9 C

1009.9 hpa

85 %

3.2 km/h aus 117

4.8 km/h aus ESE

12.4 C

14.9 C

14.9 C

14.9 C

0 W/m

0.00 mm

03:00

14.8 C

1009.8 hpa

85 %

3.2 km/h aus 116

4.8 km/h aus ESE

12.3 C

14.8 C

14.8 C

14.8 C

0 W/m

0.00 mm

03:05

14.8 C

1009.8 hpa

85 %

3.2 km/h aus 117

6.4 km/h aus ESE

12.3 C

14.8 C

14.8 C

14.8 C

0 W/m

0.00 mm

03:10

14.8 C

1009.8 hpa

85 %

3.2 km/h aus 115

4.8 km/h aus ESE

12.3 C

14.8 C

14.8 C

14.8 C

0 W/m

0.00 mm

03:15

14.8 C

1009.8 hpa

85 %

3.2 km/h aus 115

4.8 km/h aus ESE

12.3 C

14.8 C

14.8 C

14.8 C

0 W/m

0.00 mm

03:20

14.7 C

1009.8 hpa

85 %

3.2 km/h aus 116

4.8 km/h aus ESE

12.2 C

14.7 C

14.7 C

14.7 C

0 W/m

0.00 mm

03:25

14.7 C

1009.8 hpa

85 %

3.2 km/h aus 116

6.4 km/h aus ESE

12.2 C

14.6 C

14.7 C

14.6 C

0 W/m

0.00 mm

03:30

14.6 C

1009.7 hpa

85 %

4.8 km/h aus 117

6.4 km/h aus ESE

12.1 C

14.6 C

14.6 C

14.6 C

0 W/m

0.00 mm

03:35

14.6 C

1009.7 hpa

85 %

4.8 km/h aus 114

8.0 km/h aus ESE

12.1 C

14.5 C

14.6 C

14.5 C

0 W/m

0.00 mm

03:40

14.5 C

1009.7 hpa

85 %

4.8 km/h aus 115

6.4 km/h aus ESE

12.0 C

14.4 C

14.5 C

14.4 C

0 W/m

0.00 mm

03:45

14.5 C

1009.6 hpa

85 %

4.8 km/h aus 117

6.4 km/h aus ESE

12.0 C

14.4 C

14.5 C

14.4 C

0 W/m

0.00 mm

03:50

14.4 C

1009.6 hpa

85 %

4.8 km/h aus 117

6.4 km/h aus ESE

12.0 C

14.4 C

14.4 C

14.4 C

0 W/m

0.00 mm

03:55

14.4 C

1009.6 hpa

86 %

4.8 km/h aus 117

8.0 km/h aus ESE

12.1 C

14.3 C

14.4 C

14.3 C

0 W/m

0.00 mm

04:00

14.3 C

1009.5 hpa

86 %

3.2 km/h aus 114

6.4 km/h aus ESE

12.0 C

14.3 C

14.3 C

14.3 C

0 W/m

0.00 mm

04:05

14.3 C

1009.5 hpa

86 %

4.8 km/h aus 114

6.4 km/h aus ESE

12.0 C

14.3 C

14.3 C

14.3 C

0 W/m

0.00 mm

04:10

14.3 C

1009.5 hpa

86 %

6.4 km/h aus 117

9.7 km/h aus ESE

12.0 C

14.3 C

14.3 C

14.3 C

0 W/m

0.00 mm

04:15

14.4 C

1009.5 hpa

87 %

6.4 km/h aus 115

9.7 km/h aus ESE

12.3 C

14.4 C

14.4 C

14.4 C

0 W/m

0.00 mm

04:20

14.6 C

1009.5 hpa

88 %

4.8 km/h aus 117

9.7 km/h aus ESE

12.6 C

14.6 C

14.6 C

14.6 C

0 W/m

0.00 mm

04:25

14.7 C

1009.5 hpa

88 %

4.8 km/h aus 115

8.0 km/h aus ESE

12.7 C

14.7 C

14.7 C

14.7 C

0 W/m

0.00 mm

04:30

14.8 C

1009.4 hpa

89 %

6.4 km/h aus 114

9.7 km/h aus E

13.0 C

14.8 C

14.8 C

14.8 C

0 W/m

0.00 mm

04:35

14.8 C

1009.4 hpa

89 %

4.8 km/h aus 117

8.0 km/h aus ESE

13.0 C

14.9 C

14.8 C

14.9 C

0 W/m

0.00 mm

04:40

14.9 C

1009.4 hpa

89 %

4.8 km/h aus 117

8.0 km/h aus ESE

13.1 C

14.9 C

14.9 C

14.9 C

0 W/m

0.00 mm

04:45

14.9 C

1009.5 hpa

89 %

3.2 km/h aus 116

4.8 km/h aus ESE

13.1 C

15.1 C

14.9 C

15.1 C

0 W/m

0.00 mm

04:50

14.9 C

1009.5 hpa

89 %

3.2 km/h aus 115

6.4 km/h aus ESE

13.1 C

15.1 C

14.9 C

15.1 C

0 W/m

0.00 mm

04:55

14.9 C

1009.5 hpa

89 %

3.2 km/h aus 114

6.4 km/h aus ESE

13.1 C

15.1 C

14.9 C

15.1 C

0 W/m

0.00 mm

05:00

14.9 C

1009.5 hpa

89 %

3.2 km/h aus 118

6.4 km/h aus ESE

13.1 C

15.1 C

14.9 C

15.1 C

0 W/m

0.00 mm

05:05

14.9 C

1009.5 hpa

89 %

1.6 km/h aus 116

3.2 km/h aus ESE

13.1 C

15.1 C

14.9 C

15.1 C

0 W/m

0.00 mm

05:10

14.9 C

1009.5 hpa

89 %

1.6 km/h aus 117

3.2 km/h aus ESE

13.1 C

15.1 C

14.9 C

15.1 C

3 W/m

0.00 mm

05:15

14.9 C

1009.5 hpa

89 %

1.6 km/h aus 115

6.4 km/h aus ESE

13.1 C

15.1 C

14.9 C

15.1 C

7 W/m

0.00 mm

05:20

14.9 C

1009.5 hpa

89 %

3.2 km/h aus 115

6.4 km/h aus ESE

13.1 C

15.1 C

14.9 C

15.1 C

8 W/m

0.00 mm

05:25

15.0 C

1009.5 hpa

90 %

3.2 km/h aus 117

8.0 km/h aus ESE

13.4 C

15.1 C

15.0 C

15.1 C

11 W/m

0.00 mm

05:30

15.1 C

1009.4 hpa

90 %

4.8 km/h aus 117

8.0 km/h aus ESE

13.5 C

15.2 C

15.1 C

15.2 C

8 W/m

0.00 mm

05:35

15.3 C

1009.4 hpa

90 %

4.8 km/h aus 117

9.7 km/h aus ESE

13.6 C

15.4 C

15.3 C

15.4 C

7 W/m

0.00 mm

05:40

15.4 C

1009.4 hpa

90 %

3.2 km/h aus 113

6.4 km/h aus ESE

13.8 C

15.6 C

15.4 C

15.6 C

8 W/m

0.00 mm

05:45

15.4 C

1009.2 hpa

90 %

1.6 km/h aus 114

4.8 km/h aus ESE

13.8 C

15.6 C

15.4 C

15.6 C

11 W/m

0.00 mm

05:50

15.6 C

1009.2 hpa

90 %

1.6 km/h aus 117

3.2 km/h aus ESE

13.9 C

15.7 C

15.6 C

15.7 C

15 W/m

0.00 mm

05:55

15.6 C

1009.2 hpa

90 %

1.6 km/h aus 117

3.2 km/h aus ESE

14.0 C

15.8 C

15.6 C

15.8 C

20 W/m

0.00 mm

06:00

15.7 C

1009.2 hpa

90 %

1.6 km/h aus 117

3.2 km/h aus ESE

14.0 C

15.8 C

15.7 C

15.8 C

28 W/m

0.00 mm

06:05

15.7 C

1009.2 hpa

90 %

0.0 km/h aus 114

1.6 km/h aus ESE

14.1 C

15.9 C

15.7 C

15.9 C

39 W/m

0.00 mm

06:10

15.8 C

1009.2 hpa

90 %

1.6 km/h aus 115

3.2 km/h aus ESE

14.1 C

15.9 C

15.8 C

15.9 C

50 W/m

0.00 mm

06:15

15.8 C

1009.1 hpa

90 %

3.2 km/h aus 117

4.8 km/h aus ESE

14.2 C

16.1 C

15.8 C

16.1 C

57 W/m

0.00 mm

06:20

15.9 C

1009.1 hpa

90 %

3.2 km/h aus 117

4.8 km/h aus ESE

14.3 C

16.1 C

15.9 C

16.1 C

60 W/m

0.00 mm

06:25

16.0 C

1009.1 hpa

91 %

4.8 km/h aus 116

6.4 km/h aus ESE

14.5 C

16.2 C

16.0 C

16.2 C

60 W/m

0.00 mm

06:30

16.1 C

1009.1 hpa

90 %

4.8 km/h aus 114

6.4 km/h aus E

14.4 C

16.3 C

16.1 C

16.3 C

64 W/m

0.00 mm

06:35

16.2 C

1009.1 hpa

90 %

4.8 km/h aus 116

8.0 km/h aus E

14.6 C

16.4 C

16.2 C

16.4 C

80 W/m

0.00 mm

06:40

16.3 C

1009.1 hpa

90 %

3.2 km/h aus 117

6.4 km/h aus E

14.6 C

16.5 C

16.3 C

16.5 C

96 W/m

0.00 mm

06:45

16.5 C

1009.0 hpa

90 %

6.4 km/h aus 117

9.7 km/h aus SE

14.9 C

16.8 C

16.5 C

16.8 C

95 W/m

0.00 mm

06:50

16.7 C

1009.0 hpa

89 %

8.0 km/h aus 116

14.5 km/h aus SE

14.8 C

16.9 C

16.7 C

16.9 C

94 W/m

0.00 mm

06:55

16.8 C

1009.0 hpa

89 %

6.4 km/h aus 114

11.3 km/h aus ESE

15.0 C

17.1 C

16.8 C

17.1 C

98 W/m

0.00 mm

07:00

17.0 C

1009.0 hpa

89 %

6.4 km/h aus 117

9.7 km/h aus ESE

15.2 C

17.3 C

17.0 C

17.3 C

96 W/m

0.00 mm

07:05

17.1 C

1009.0 hpa

88 %

6.4 km/h aus 118

14.5 km/h aus SE

15.1 C

17.4 C

17.1 C

17.4 C

100 W/m

0.00 mm

07:10

17.2 C

1009.0 hpa

87 %

8.0 km/h aus 117

14.5 km/h aus ESE

15.0 C

17.6 C

17.2 C

17.6 C

121 W/m

0.00 mm

07:15

17.4 C

1009.0 hpa

87 %

8.0 km/h aus 115

14.5 km/h aus ESE

15.3 C

17.8 C

17.4 C

17.8 C

171 W/m

0.00 mm

07:20

17.7 C

1009.0 hpa

85 %

9.7 km/h aus 116

17.7 km/h aus SE

15.1 C

18.0 C

17.7 C

18.0 C

159 W/m

0.00 mm

07:25

17.9 C

1009.0 hpa

84 %

9.7 km/h aus 116

16.1 km/h aus ESE

15.2 C

18.3 C

17.9 C

18.3 C

162 W/m

0.00 mm

07:30

18.2 C

1008.9 hpa

83 %

9.7 km/h aus 117

16.1 km/h aus SE

15.2 C

18.6 C

18.2 C

18.6 C

170 W/m

0.00 mm

07:35

18.4 C

1008.9 hpa

81 %

9.7 km/h aus 116

16.1 km/h aus ESE

15.1 C

18.9 C

18.4 C

18.9 C

189 W/m

0.00 mm

07:40

18.7 C

1008.9 hpa

80 %

9.7 km/h aus 113

17.7 km/h aus SE

15.2 C

19.2 C

18.7 C

19.2 C

208 W/m

0.00 mm

07:45

19.1 C

1008.8 hpa

79 %

8.0 km/h aus 116

16.1 km/h aus ESE

15.3 C

19.6 C

19.1 C

19.6 C

249 W/m

0.00 mm

07:50

19.3 C

1008.8 hpa

76 %

9.7 km/h aus 117

19.3 km/h aus ESE

15.0 C

19.7 C

19.3 C

19.7 C

258 W/m

0.00 mm

07:55

19.7 C

1008.8 hpa

75 %

9.7 km/h aus 117

17.7 km/h aus SSE

15.1 C

20.1 C

19.7 C

20.1 C

260 W/m

0.00 mm

08:00

20.0 C

1008.6 hpa

74 %

9.7 km/h aus 115

17.7 km/h aus SE

15.2 C

20.4 C

20.0 C

20.4 C

310 W/m

0.00 mm

08:05

20.3 C

1008.6 hpa

73 %

8.0 km/h aus 115

16.1 km/h aus ESE

15.3 C

20.7 C

20.3 C

20.7 C

308 W/m

0.00 mm

08:10

20.5 C

1008.6 hpa

71 %

9.7 km/h aus 118

17.7 km/h aus ESE

15.1 C

20.8 C

20.5 C

20.8 C

286 W/m

0.00 mm

08:15

20.8 C

1008.5 hpa

71 %

8.0 km/h aus 117

14.5 km/h aus SE

15.4 C

21.1 C

20.8 C

21.1 C

332 W/m

0.00 mm

08:20

21.2 C

1008.5 hpa

69 %

8.0 km/h aus 117

14.5 km/h aus ESE

15.3 C

21.2 C

21.2 C

21.2 C

337 W/m

0.00 mm

08:25

21.4 C

1008.5 hpa

68 %

6.4 km/h aus 114

12.9 km/h aus SE

15.3 C

21.5 C

21.4 C

21.5 C

365 W/m

0.00 mm

08:30

21.8 C

1008.6 hpa

67 %

8.0 km/h aus 117

12.9 km/h aus E

15.4 C

21.9 C

21.8 C

21.9 C

416 W/m

0.00 mm

08:35

22.1 C

1008.6 hpa

65 %

9.7 km/h aus 116

16.1 km/h aus E

15.2 C

22.2 C

22.1 C

22.2 C

437 W/m

0.00 mm

08:40

22.4 C

1008.6 hpa

63 %

9.7 km/h aus 117

17.7 km/h aus ESE

15.1 C

22.6 C

22.4 C

22.6 C

390 W/m

0.00 mm

08:45

22.8 C

1008.5 hpa

61 %

11.3 km/h aus 113

19.3 km/h aus SE

14.9 C

23.1 C

22.8 C

23.1 C

441 W/m

0.00 mm

08:50

23.1 C

1008.5 hpa

61 %

11.3 km/h aus 115

19.3 km/h aus SE

15.1 C

23.4 C

23.1 C

23.4 C

435 W/m

0.00 mm

08:55

23.3 C

1008.5 hpa

60 %

11.3 km/h aus 116

22.5 km/h aus ESE

15.1 C

23.7 C

23.3 C

23.7 C

398 W/m

0.00 mm

09:00

23.5 C

1008.5 hpa

60 %

11.3 km/h aus 112

24.1 km/h aus ESE

15.3 C

23.9 C

23.5 C

23.9 C

423 W/m

0.00 mm

09:05

23.7 C

1008.5 hpa

59 %

14.5 km/h aus 116

22.5 km/h aus SSE

15.2 C

23.3 C

22.9 C

24.1 C

429 W/m

0.00 mm

09:10

23.8 C

1008.5 hpa

59 %

16.1 km/h aus 113

24.1 km/h aus SE

15.3 C

23.2 C

22.7 C

24.3 C

467 W/m

0.00 mm

09:15

23.9 C

1008.5 hpa

59 %

17.7 km/h aus 117

25.7 km/h aus SE

15.4 C

23.0 C

22.6 C

24.3 C

425 W/m

0.00 mm

09:20

23.9 C

1008.5 hpa

59 %

17.7 km/h aus 115

25.7 km/h aus SE

15.4 C

23.1 C

22.6 C

24.4 C

460 W/m

0.00 mm

09:25

24.1 C

1008.5 hpa

58 %

16.1 km/h aus 116

25.7 km/h aus SSE

15.3 C

23.4 C

23.0 C

24.5 C

512 W/m

0.00 mm

09:30

24.3 C

1008.4 hpa

58 %

17.7 km/h aus 113

24.1 km/h aus SSE

15.5 C

23.4 C

23.1 C

24.7 C

495 W/m

0.00 mm

09:35

23.9 C

1008.4 hpa

59 %

16.1 km/h aus 115

24.1 km/h aus ESE

15.4 C

23.3 C

22.8 C

24.4 C

476 W/m

0.00 mm

09:40

23.8 C

1008.4 hpa

60 %

14.5 km/h aus 117

20.9 km/h aus SE

15.6 C

23.6 C

23.1 C

24.3 C

496 W/m

0.00 mm

09:45

24.0 C

1008.3 hpa

60 %

14.5 km/h aus 117

20.9 km/h aus SSE

15.8 C

23.8 C

23.3 C

24.5 C

520 W/m

0.00 mm

09:50

24.1 C

1008.3 hpa

59 %

12.9 km/h aus 117

19.3 km/h aus SE

15.6 C

24.2 C

23.8 C

24.5 C

538 W/m

0.00 mm

09:55

24.6 C

1008.3 hpa

59 %

14.5 km/h aus 114

22.5 km/h aus SE

16.0 C

24.2 C

23.8 C

24.9 C

545 W/m

0.00 mm

10:00

24.6 C

1008.2 hpa

58 %

16.1 km/h aus 117

22.5 km/h aus SE

15.7 C

23.8 C

23.5 C

24.9 C

545 W/m

0.00 mm

10:05

25.0 C

1008.2 hpa

57 %

11.3 km/h aus 116

20.9 km/h aus SE

15.9 C

25.3 C

25.0 C

25.3 C

555 W/m

0.00 mm

10:10

25.1 C

1008.2 hpa

57 %

11.3 km/h aus 117

22.5 km/h aus SE

16.0 C

25.4 C

25.1 C

25.4 C

561 W/m

0.00 mm

10:15

25.5 C

1008.1 hpa

55 %

12.9 km/h aus 114

20.9 km/h aus ESE

15.8 C

25.5 C

25.2 C

25.8 C

558 W/m

0.00 mm

10:20

25.8 C

1008.1 hpa

55 %

12.9 km/h aus 115

20.9 km/h aus SE

16.1 C

25.8 C

25.5 C

26.1 C

567 W/m

0.00 mm

10:25

25.9 C

1008.1 hpa

55 %

14.5 km/h aus 115

20.9 km/h aus SE

16.2 C

25.6 C

25.3 C

26.2 C

567 W/m

0.00 mm

10:30

26.2 C

1008.0 hpa

54 %

17.7 km/h aus 117

24.1 km/h aus SSE

16.1 C

25.3 C

25.1 C

26.4 C

568 W/m

0.00 mm

10:35

26.3 C

1008.0 hpa

54 %

14.5 km/h aus 114

24.1 km/h aus SSE

16.3 C

26.0 C

25.7 C

26.6 C

574 W/m

0.00 mm

10:40

26.6 C

1008.0 hpa

53 %

14.5 km/h aus 114

24.1 km/h aus SSE

16.2 C

26.2 C

25.9 C

26.8 C

577 W/m

0.00 mm

10:45

26.6 C

1007.9 hpa

53 %

11.3 km/h aus 117

22.5 km/h aus SE

16.2 C

26.8 C

26.6 C

26.8 C

571 W/m

0.00 mm

10:50

26.7 C

1007.9 hpa

52 %

17.7 km/h aus 117

24.1 km/h aus SSE

16.0 C

25.8 C

25.6 C

26.8 C

557 W/m

0.00 mm

10:55

26.6 C

1007.9 hpa

52 %

14.5 km/h aus 116

22.5 km/h aus SSE

15.9 C

26.2 C

26.0 C

26.8 C

563 W/m

0.00 mm

11:00

26.7 C

1008.0 hpa

53 %

17.7 km/h aus 113

24.1 km/h aus SSE

16.3 C

25.9 C

25.7 C

27.0 C

575 W/m

0.00 mm

11:05

26.7 C

1008.0 hpa

52 %

9.7 km/h aus 116

20.9 km/h aus SE

16.0 C

26.8 C

26.7 C

26.8 C

575 W/m

0.00 mm

11:10

27.1 C

1008.0 hpa

51 %

12.9 km/h aus 117

19.3 km/h aus SE

16.1 C

27.1 C

26.9 C

27.3 C

586 W/m

0.00 mm

11:15

27.3 C

1007.8 hpa

51 %

12.9 km/h aus 116

19.3 km/h aus SE

16.3 C

27.3 C

27.1 C

27.5 C

575 W/m

0.00 mm

11:20

27.4 C

1007.8 hpa

50 %

12.9 km/h aus 117

20.9 km/h aus SE

16.1 C

27.4 C

27.2 C

27.7 C

572 W/m

0.00 mm

11:25

27.3 C

1007.8 hpa

52 %

14.5 km/h aus 114

24.1 km/h aus S

16.6 C

27.0 C

26.7 C

27.6 C

575 W/m

0.00 mm

11:30

27.3 C

1007.7 hpa

52 %

11.3 km/h aus 117

19.3 km/h aus S

16.6 C

27.7 C

27.3 C

27.7 C

600 W/m

0.00 mm

11:35

27.2 C

1007.7 hpa

53 %

12.9 km/h aus 116

20.9 km/h aus SE

16.8 C

27.3 C

26.9 C

27.5 C

565 W/m

0.00 mm

11:40

27.2 C

1007.7 hpa

54 %

11.3 km/h aus 115

20.9 km/h aus ESE

17.1 C

27.6 C

27.2 C

27.6 C

587 W/m

0.00 mm

11:45

27.7 C

1007.5 hpa

53 %

12.9 km/h aus 114

17.7 km/h aus ESE

17.2 C

28.1 C

27.5 C

28.2 C

591 W/m

0.00 mm

11:50

27.5 C

1007.5 hpa

52 %

12.9 km/h aus 97

25.7 km/h aus SSE

16.8 C

27.7 C

27.3 C

27.9 C

576 W/m

0.00 mm

11:55

27.6 C

1007.5 hpa

53 %

12.9 km/h aus 84

19.3 km/h aus SSE

17.1 C

27.9 C

27.4 C

28.1 C

575 W/m

0.00 mm

12:00

27.9 C

1007.4 hpa

51 %

14.5 km/h aus 81

22.5 km/h aus SE

16.9 C

27.9 C

27.4 C

28.4 C

579 W/m

0.00 mm

12:05

28.1 C

1007.4 hpa

50 %

17.7 km/h aus 108

24.1 km/h aus SE

16.7 C

27.7 C

27.2 C

28.6 C

576 W/m

0.00 mm

12:10

28.4 C

1007.4 hpa

45 %

14.5 km/h aus 115

20.9 km/h aus S

15.4 C

28.3 C

28.0 C

28.8 C

585 W/m

0.00 mm

12:15

28.7 C

1007.3 hpa

45 %

17.7 km/h aus 112

30.6 km/h aus SSE

15.6 C

28.4 C

27.9 C

29.2 C

591 W/m

0.00 mm

12:20

28.8 C

1007.3 hpa

45 %

17.7 km/h aus 117

30.6 km/h aus S

15.7 C

28.7 C

28.1 C

29.4 C

606 W/m

0.00 mm

12:25

28.7 C

1007.3 hpa

45 %

17.7 km/h aus 116

25.7 km/h aus S

15.6 C

28.4 C

27.9 C

29.2 C

587 W/m

0.00 mm

12:30

29.1 C

1007.1 hpa

49 %

11.3 km/h aus 114

19.3 km/h aus S

17.3 C

30.0 C

29.1 C

30.0 C

612 W/m

0.00 mm

12:35

29.7 C

1007.1 hpa

44 %

20.9 km/h aus 116

33.8 km/h aus S

16.1 C

29.3 C

28.8 C

30.2 C

583 W/m

0.00 mm

12:40

29.2 C

1007.1 hpa

46 %

14.5 km/h aus 117

24.1 km/h aus S

16.4 C

29.6 C

28.9 C

29.9 C

563 W/m

0.00 mm

12:45

29.2 C

1007.0 hpa

44 %

14.5 km/h aus 116

25.7 km/h aus S

15.7 C

29.4 C

28.9 C

29.7 C

560 W/m

0.00 mm

12:50

28.3 C

1007.0 hpa

45 %

16.1 km/h aus 114

29.0 km/h aus SSW

15.3 C

27.9 C

27.7 C

28.6 C

366 W/m

0.00 mm

12:55

28.0 C

1007.0 hpa

48 %

12.9 km/h aus 115

20.9 km/h aus S

16.0 C

28.2 C

27.8 C

28.3 C

338 W/m

0.00 mm

13:00

28.7 C

1006.9 hpa

46 %

17.7 km/h aus 114

30.6 km/h aus S

15.9 C

28.4 C

27.9 C

29.2 C

498 W/m

0.00 mm

13:05

28.3 C

1006.9 hpa

46 %

14.5 km/h aus 110

22.5 km/h aus SSW

15.6 C

28.2 C

27.9 C

28.7 C

314 W/m

0.00 mm

13:10

28.0 C

1006.9 hpa

48 %

14.5 km/h aus 116

20.9 km/h aus S

16.0 C

27.8 C

27.5 C

28.3 C

280 W/m

0.00 mm

13:15

27.9 C

1006.9 hpa

49 %

17.7 km/h aus 113

25.7 km/h aus SSE

16.2 C

27.3 C

26.9 C

28.2 C

322 W/m

0.00 mm

13:20

28.1 C

1006.9 hpa

49 %

17.7 km/h aus 116

25.7 km/h aus SE

16.4 C

27.7 C

27.2 C

28.6 C

363 W/m

0.00 mm

13:25

28.2 C

1006.9 hpa

51 %

17.7 km/h aus 118

27.4 km/h aus SSE

17.1 C

27.9 C

27.3 C

28.8 C

403 W/m

0.00 mm

13:30

27.9 C

1006.9 hpa

51 %

16.1 km/h aus 115

20.9 km/h aus SSE

16.9 C

27.7 C

27.2 C

28.4 C

280 W/m

0.00 mm

13:35

27.7 C

1006.9 hpa

53 %

12.9 km/h aus 115

22.5 km/h aus SSE

17.3 C

28.1 C

27.6 C

28.3 C

274 W/m

0.00 mm

13:40

27.6 C

1006.9 hpa

51 %

11.3 km/h aus 116

17.7 km/h aus SE

16.6 C

27.9 C

27.6 C

27.9 C

243 W/m

0.00 mm

13:45

27.9 C

1006.9 hpa

52 %

9.7 km/h aus 117

17.7 km/h aus SSE

17.1 C

28.4 C

27.9 C

28.4 C

364 W/m

0.00 mm

13:50

28.1 C

1006.9 hpa

51 %

9.7 km/h aus 117

19.3 km/h aus ESE

17.0 C

28.7 C

28.1 C

28.7 C

438 W/m

0.00 mm

13:55

29.0 C

1006.9 hpa

51 %

14.5 km/h aus 116

20.9 km/h aus SE

17.8 C

29.7 C

28.6 C

30.1 C

597 W/m

0.00 mm

14:00

29.8 C

1006.8 hpa

48 %

12.9 km/h aus 113

24.1 km/h aus SSE

17.6 C

30.6 C

29.7 C

30.7 C

607 W/m

0.00 mm

14:05

29.6 C

1006.8 hpa

46 %

16.1 km/h aus 116

25.7 km/h aus SE

16.8 C

29.8 C

29.1 C

30.3 C

581 W/m

0.00 mm

14:10

29.2 C

1006.8 hpa

47 %

14.5 km/h aus 116

22.5 km/h aus SE

16.7 C

29.6 C

28.8 C

29.9 C

366 W/m

0.00 mm

14:15

29.5 C

1006.4 hpa

44 %

12.9 km/h aus 117

24.1 km/h aus SSE

16.0 C

29.8 C

29.4 C

29.9 C

528 W/m

0.00 mm

14:20

29.6 C

1006.4 hpa

43 %

19.3 km/h aus 114

30.6 km/h aus S

15.7 C

29.2 C

28.8 C

29.9 C

534 W/m

0.00 mm

14:25

29.2 C

1006.4 hpa

45 %

16.1 km/h aus 116

25.7 km/h aus S

16.0 C

29.2 C

28.6 C

29.7 C

514 W/m

0.00 mm

14:30

30.4 C

1006.2 hpa

45 %

12.9 km/h aus 91

24.1 km/h aus SSE

17.2 C

31.2 C

30.4 C

31.3 C

596 W/m

0.00 mm

14:35

30.1 C

1006.2 hpa

43 %

14.5 km/h aus 90

25.7 km/h aus SSE

16.1 C

30.2 C

29.8 C

30.5 C

391 W/m

0.00 mm

14:40

29.7 C

1006.2 hpa

44 %

16.1 km/h aus 84

25.7 km/h aus SE

16.1 C

29.7 C

29.2 C

30.2 C

506 W/m

0.00 mm

14:45

28.8 C

1006.0 hpa

46 %

14.5 km/h aus 97

20.9 km/h aus S

16.1 C

29.1 C

28.4 C

29.5 C

253 W/m

0.00 mm

14:50

28.9 C

1006.0 hpa

47 %

11.3 km/h aus 96

25.7 km/h aus SSE

16.4 C

29.7 C

28.9 C

29.7 C

318 W/m

0.00 mm

14:55

29.0 C

1006.0 hpa

47 %

14.5 km/h aus 101

20.9 km/h aus SE

16.5 C

29.4 C

28.6 C

29.8 C

288 W/m

0.00 mm

15:00

28.7 C

1006.1 hpa

47 %

16.1 km/h aus 99

25.7 km/h aus S

16.3 C

28.8 C

28.1 C

29.4 C

195 W/m

0.00 mm

15:05

28.6 C

1006.1 hpa

46 %

14.5 km/h aus 97

20.9 km/h aus S

15.8 C

28.6 C

28.1 C

29.1 C

102 W/m

0.00 mm

15:10

28.6 C

1006.1 hpa

47 %

14.5 km/h aus 98

20.9 km/h aus SSE

16.1 C

28.7 C

28.1 C

29.1 C

78 W/m

0.00 mm

15:15

28.4 C

1006.3 hpa

48 %

11.3 km/h aus 112

16.1 km/h aus SSE

16.4 C

29.0 C

28.4 C

29.0 C

55 W/m

0.00 mm

15:20

28.3 C

1006.3 hpa

49 %

9.7 km/h aus 114

14.5 km/h aus SSE

16.6 C

28.9 C

28.3 C

28.9 C

53 W/m

0.00 mm

15:25

28.1 C

1006.3 hpa

49 %

14.5 km/h aus 115

22.5 km/h aus SSE

16.4 C

28.1 C

27.7 C

28.6 C

52 W/m

0.00 mm

15:30

27.9 C

1007.0 hpa

50 %

12.9 km/h aus 115

29.0 km/h aus W

16.6 C

28.2 C

27.8 C

28.4 C

31 W/m

0.00 mm

15:35

26.8 C

1007.0 hpa

49 %

29.0 km/h aus 117

48.3 km/h aus W

15.2 C

24.8 C

24.8 C

26.8 C

2 W/m

0.00 mm

15:40

24.3 C

1007.0 hpa

61 %

35.4 km/h aus 116

56.3 km/h aus W

16.3 C

21.9 C

21.4 C

24.8 C

0 W/m

3.30 mm

15:45

22.3 C

1008.5 hpa

68 %

24.1 km/h aus 116

48.3 km/h aus W

16.1 C

20.4 C

20.1 C

22.7 C

0 W/m

4.83 mm

15:50

20.9 C

1008.5 hpa

73 %

17.7 km/h aus 115

32.2 km/h aus WSW

15.9 C

19.7 C

19.4 C

21.2 C

2 W/m

5.84 mm

15:55

20.1 C

1008.5 hpa

76 %

8.0 km/h aus 117

19.3 km/h aus W

15.7 C

20.7 C

20.1 C

20.7 C

7 W/m

1.27 mm

16:00

19.6 C

1007.4 hpa

78 %

6.4 km/h aus 117

14.5 km/h aus NNW

15.7 C

20.2 C

19.6 C

20.2 C

11 W/m

1.52 mm

16:05

19.3 C

1007.4 hpa

80 %

4.8 km/h aus 114

8.0 km/h aus NNW

15.8 C

19.9 C

19.3 C

19.9 C

15 W/m

0.51 mm

16:10

19.1 C

1007.4 hpa

82 %

4.8 km/h aus 115

8.0 km/h aus NNW

16.0 C

19.7 C

19.1 C

19.7 C

25 W/m

0.00 mm

16:15

18.9 C

1007.9 hpa

84 %

3.2 km/h aus 116

6.4 km/h aus NNW

16.2 C

19.5 C

18.9 C

19.5 C

47 W/m

0.00 mm

16:20

18.8 C

1007.9 hpa

84 %

3.2 km/h aus 116

6.4 km/h aus N

16.0 C

19.3 C

18.8 C

19.3 C

70 W/m

0.00 mm

16:25

18.7 C

1007.9 hpa

86 %

4.8 km/h aus 115

8.0 km/h aus N

16.3 C

19.2 C

18.7 C

19.2 C

103 W/m

0.00 mm

16:30

18.5 C

1007.8 hpa

89 %

3.2 km/h aus 115

6.4 km/h aus NNW

16.7 C

19.1 C

18.5 C

19.1 C

250 W/m

0.00 mm

16:35

18.5 C

1007.8 hpa

90 %

4.8 km/h aus 114

8.0 km/h aus NW

16.8 C

19.1 C

18.5 C

19.1 C

507 W/m

0.00 mm

16:40

18.9 C

1007.8 hpa

91 %

3.2 km/h aus 118

8.0 km/h aus NW

17.4 C

19.7 C

18.9 C

19.7 C

601 W/m

0.00 mm

16:45

19.0 C

1008.0 hpa

88 %

1.6 km/h aus 117

6.4 km/h aus NE

17.0 C

19.7 C

19.0 C

19.7 C

466 W/m

0.00 mm

16:50

19.1 C

1008.0 hpa

88 %

3.2 km/h aus 116

6.4 km/h aus ENE

17.0 C

19.8 C

19.1 C

19.8 C

342 W/m

0.00 mm

16:55

19.2 C

1008.0 hpa

88 %

3.2 km/h aus 113

8.0 km/h aus NE

17.1 C

19.9 C

19.2 C

19.9 C

268 W/m

0.00 mm

17:00

19.1 C

1008.0 hpa

87 %

3.2 km/h aus 117

6.4 km/h aus NE

16.8 C

19.7 C

19.1 C

19.7 C

189 W/m

0.00 mm

17:05

18.9 C

1008.0 hpa

87 %

3.2 km/h aus 117

6.4 km/h aus NE

16.7 C

19.6 C

18.9 C

19.6 C

174 W/m

0.00 mm

17:10

18.9 C

1008.0 hpa

86 %

3.2 km/h aus 116

6.4 km/h aus ENE

16.5 C

19.6 C

18.9 C

19.6 C

175 W/m

0.00 mm

17:15

18.9 C

1008.0 hpa

87 %

3.2 km/h aus 115

8.0 km/h aus SE

16.7 C

19.6 C

18.9 C

19.6 C

129 W/m

0.00 mm

17:20

19.0 C

1008.0 hpa

87 %

4.8 km/h aus 116

8.0 km/h aus ESE

16.8 C

19.7 C

19.0 C

19.7 C

99 W/m

0.00 mm

17:25

18.9 C

1008.0 hpa

87 %

3.2 km/h aus 117

6.4 km/h aus ESE

16.7 C

19.6 C

18.9 C

19.6 C

89 W/m

0.00 mm

17:30

18.9 C

1007.3 hpa

88 %

3.2 km/h aus 117

6.4 km/h aus E

16.9 C

19.6 C

18.9 C

19.6 C

133 W/m

0.25 mm

17:35

18.9 C

1007.3 hpa

88 %

4.8 km/h aus 115

8.0 km/h aus NNW

16.9 C

19.6 C

18.9 C

19.6 C

193 W/m

0.00 mm

17:40

18.9 C

1007.3 hpa

88 %

3.2 km/h aus 114

8.0 km/h aus ESE

16.9 C

19.6 C

18.9 C

19.6 C

175 W/m

0.00 mm

17:45

19.0 C

1007.8 hpa

89 %

8.0 km/h aus 117

12.9 km/h aus ESE

17.1 C

19.7 C

19.0 C

19.7 C

133 W/m

0.00 mm

17:50

19.0 C

1007.8 hpa

89 %

4.8 km/h aus 116

8.0 km/h aus NE

17.1 C

19.7 C

19.0 C

19.7 C

105 W/m

0.00 mm

17:55

18.8 C

1007.8 hpa

88 %

4.8 km/h aus 117

9.7 km/h aus E

16.8 C

19.5 C

18.8 C

19.5 C

101 W/m

0.00 mm

18:00

18.8 C

1007.6 hpa

88 %

4.8 km/h aus 115

9.7 km/h aus NE

16.7 C

19.4 C

18.8 C

19.4 C

123 W/m

0.00 mm

18:05

18.8 C

1007.6 hpa

89 %

4.8 km/h aus 115

9.7 km/h aus ESE

16.9 C

19.4 C

18.8 C

19.4 C

101 W/m

0.00 mm

18:10

18.7 C

1007.6 hpa

89 %

4.8 km/h aus 117

8.0 km/h aus ESE

16.9 C

19.4 C

18.7 C

19.4 C

52 W/m

0.00 mm

18:15

18.7 C

1007.9 hpa

89 %

3.2 km/h aus 117

6.4 km/h aus ESE

16.9 C

19.4 C

18.7 C

19.4 C

67 W/m

0.00 mm

18:20

18.7 C

1007.9 hpa

89 %

4.8 km/h aus 116

6.4 km/h aus NE

16.9 C

19.4 C

18.7 C

19.4 C

118 W/m

0.00 mm

18:25

18.7 C

1007.9 hpa

89 %

1.6 km/h aus 114

4.8 km/h aus NE

16.9 C

19.4 C

18.7 C

19.4 C

124 W/m

0.00 mm

18:30

18.7 C

1007.5 hpa

89 %

1.6 km/h aus 117

4.8 km/h aus NE

16.9 C

19.4 C

18.7 C

19.4 C

119 W/m

0.00 mm

18:35

18.7 C

1007.5 hpa

89 %

1.6 km/h aus 116

4.8 km/h aus NE

16.9 C

19.4 C

18.7 C

19.4 C

68 W/m

0.00 mm

18:40

18.7 C

1007.5 hpa

89 %

1.6 km/h aus 117

4.8 km/h aus NNW

16.9 C

19.4 C

18.7 C

19.4 C

27 W/m

0.00 mm

18:45

18.7 C

1008.5 hpa

90 %

6.4 km/h aus 116

14.5 km/h aus SW

17.0 C

19.4 C

18.7 C

19.4 C

5 W/m

0.25 mm

18:50

18.8 C

1008.5 hpa

90 %

11.3 km/h aus 115

20.9 km/h aus WSW

17.1 C

19.4 C

18.8 C

19.4 C

0 W/m

0.25 mm

18:55

18.7 C

1008.5 hpa

90 %

4.8 km/h aus 116

16.1 km/h aus W

17.0 C

19.4 C

18.7 C

19.4 C

0 W/m

2.54 mm

19:00

18.7 C

1009.7 hpa

90 %

3.2 km/h aus 117

11.3 km/h aus SSW

17.0 C

19.3 C

18.7 C

19.3 C

0 W/m

4.83 mm

19:05

18.6 C

1009.7 hpa

90 %

1.6 km/h aus 117

4.8 km/h aus S

16.9 C

19.2 C

18.6 C

19.2 C

0 W/m

0.51 mm

19:10

18.4 C

1009.7 hpa

90 %

6.4 km/h aus 113

14.5 km/h aus S

16.8 C

19.1 C

18.4 C

19.1 C

5 W/m

0.25 mm

19:15

18.4 C

1010.4 hpa

90 %

8.0 km/h aus 115

16.1 km/h aus W

16.7 C

18.9 C

18.4 C

18.9 C

5 W/m

0.25 mm

19:20

18.3 C

1010.4 hpa

91 %

6.4 km/h aus 116

11.3 km/h aus WSW

16.8 C

18.8 C

18.3 C

18.8 C

15 W/m

0.51 mm

19:25

18.2 C

1010.4 hpa

91 %

6.4 km/h aus 117

14.5 km/h aus NE

16.7 C

18.8 C

18.2 C

18.8 C

31 W/m

0.51 mm

19:30

18.2 C

1008.2 hpa

91 %

6.4 km/h aus 116

16.1 km/h aus ENE

16.7 C

18.7 C

18.2 C

18.7 C

55 W/m

0.00 mm

19:35

18.1 C

1008.2 hpa

91 %

9.7 km/h aus 114

16.1 km/h aus ENE

16.6 C

18.7 C

18.1 C

18.7 C

74 W/m

0.00 mm

19:40

18.1 C

1008.2 hpa

92 %

8.0 km/h aus 117

16.1 km/h aus ESE

16.7 C

18.6 C

18.1 C

18.6 C

94 W/m

0.00 mm

19:45

18.1 C

1008.5 hpa

92 %

6.4 km/h aus 117

14.5 km/h aus ESE

16.7 C

18.6 C

18.1 C

18.6 C

122 W/m

0.00 mm

19:50

17.9 C

1008.5 hpa

92 %

8.0 km/h aus 118

11.3 km/h aus ESE

16.6 C

18.4 C

17.9 C

18.4 C

105 W/m

0.00 mm

19:55

17.8 C

1008.5 hpa

91 %

8.0 km/h aus 115

14.5 km/h aus ESE

16.3 C

18.2 C

17.8 C

18.2 C

94 W/m

0.00 mm

20:00

17.6 C

1008.4 hpa

92 %

8.0 km/h aus 115

11.3 km/h aus ENE

16.3 C

18.1 C

17.6 C

18.1 C

83 W/m

0.00 mm

20:05

17.5 C

1008.4 hpa

92 %

8.0 km/h aus 117

16.1 km/h aus E

16.2 C

17.9 C

17.5 C

17.9 C

69 W/m

0.00 mm

20:10

17.4 C

1008.4 hpa

92 %

8.0 km/h aus 117

17.7 km/h aus E

16.1 C

17.8 C

17.4 C

17.8 C

54 W/m

0.00 mm

20:15

17.3 C

1008.4 hpa

92 %

8.0 km/h aus 117

11.3 km/h aus ESE

16.0 C

17.8 C

17.3 C

17.8 C

39 W/m

0.00 mm

20:20

17.3 C

1008.4 hpa

92 %

6.4 km/h aus 114

11.3 km/h aus SE

16.0 C

17.7 C

17.3 C

17.7 C

34 W/m

0.00 mm

20:25

17.3 C

1008.4 hpa

92 %

8.0 km/h aus 117

19.3 km/h aus ESE

16.0 C

17.7 C

17.3 C

17.7 C

33 W/m

0.00 mm

20:30

17.2 C

1008.5 hpa

93 %

9.7 km/h aus 117

16.1 km/h aus SE

16.1 C

17.7 C

17.2 C

17.7 C

26 W/m

0.00 mm

20:35

17.2 C

1008.5 hpa

92 %

6.4 km/h aus 117

14.5 km/h aus ESE

15.9 C

17.6 C

17.2 C

17.6 C

21 W/m

0.00 mm

20:40

17.2 C

1008.5 hpa

92 %

8.0 km/h aus 115

16.1 km/h aus SE

15.9 C

17.6 C

17.2 C

17.6 C

23 W/m

0.00 mm

20:45

17.2 C

1008.5 hpa

93 %

9.7 km/h aus 114

16.1 km/h aus SSE

16.1 C

17.7 C

17.2 C

17.7 C

25 W/m

0.00 mm

20:50

17.2 C

1008.5 hpa

93 %

8.0 km/h aus 118

16.1 km/h aus SE

16.1 C

17.7 C

17.2 C

17.7 C

24 W/m

0.00 mm

20:55

17.2 C

1008.5 hpa

93 %

6.4 km/h aus 117

12.9 km/h aus SE

16.1 C

17.7 C

17.2 C

17.7 C

23 W/m

0.00 mm

21:00

17.2 C

1008.5 hpa

93 %

3.2 km/h aus 117

8.0 km/h aus ESE

16.1 C

17.7 C

17.2 C

17.7 C

22 W/m

0.00 mm

21:05

17.2 C

1008.5 hpa

93 %

3.2 km/h aus 115

8.0 km/h aus ESE

16.0 C

17.6 C

17.2 C

17.6 C

19 W/m

0.00 mm

21:10

17.2 C

1008.5 hpa

93 %

3.2 km/h aus 115

6.4 km/h aus ESE

16.0 C

17.6 C

17.2 C

17.6 C

15 W/m

0.00 mm

21:15

17.2 C

1008.6 hpa

93 %

1.6 km/h aus 116

6.4 km/h aus E

16.0 C

17.6 C

17.2 C

17.6 C

12 W/m

0.00 mm

21:20

17.2 C

1008.6 hpa

93 %

3.2 km/h aus 117

8.0 km/h aus ESE

16.0 C

17.6 C

17.2 C

17.6 C

8 W/m

0.00 mm

21:25

17.3 C

1008.6 hpa

93 %

4.8 km/h aus 116

8.0 km/h aus E

16.1 C

17.7 C

17.3 C

17.7 C

4 W/m

0.00 mm

21:30

17.3 C

1008.5 hpa

93 %

6.4 km/h aus 114

9.7 km/h aus ESE

16.2 C

17.8 C

17.3 C

17.8 C

0 W/m

0.00 mm

21:35

17.3 C

1008.5 hpa

93 %

6.4 km/h aus 116

9.7 km/h aus E

16.2 C

17.8 C

17.3 C

17.8 C

0 W/m

0.00 mm

21:40

17.4 C

1008.5 hpa

94 %

4.8 km/h aus 117

8.0 km/h aus E

16.4 C

17.8 C

17.4 C

17.8 C

0 W/m

0.00 mm

21:45

17.4 C

1008.5 hpa

94 %

4.8 km/h aus 116

8.0 km/h aus E

16.4 C

17.8 C

17.4 C

17.8 C

0 W/m

0.00 mm

21:50

17.4 C

1008.5 hpa

94 %

3.2 km/h aus 115

6.4 km/h aus ENE

16.4 C

17.8 C

17.4 C

17.8 C

0 W/m

0.00 mm

21:55

17.4 C

1008.5 hpa

94 %

3.2 km/h aus 114

4.8 km/h aus NE

16.4 C

17.8 C

17.4 C

17.8 C

0 W/m

0.00 mm

22:00

17.3 C

1008.5 hpa

94 %

3.2 km/h aus 117

6.4 km/h aus ENE

16.4 C

17.8 C

17.3 C

17.8 C

0 W/m

0.00 mm

22:05

17.3 C

1008.5 hpa

93 %

3.2 km/h aus 117

6.4 km/h aus ENE

16.2 C

17.8 C

17.3 C

17.8 C

0 W/m

0.00 mm

22:10

17.3 C

1008.5 hpa

93 %

1.6 km/h aus 117

4.8 km/h aus ENE

16.2 C

17.8 C

17.3 C

17.8 C

0 W/m

0.00 mm

22:15

17.3 C

1009.0 hpa

93 %

1.6 km/h aus 115

3.2 km/h aus ENE

16.2 C

17.8 C

17.3 C

17.8 C

0 W/m

0.00 mm

22:20

17.3 C

1009.0 hpa

93 %

0.0 km/h aus 114

0.0 km/h aus ---

16.1 C

17.7 C

17.3 C

17.7 C

0 W/m

0.00 mm

22:25

17.2 C

1009.0 hpa

93 %

0.0 km/h aus 116

1.6 km/h aus ENE

16.1 C

17.7 C

17.2 C

17.7 C

0 W/m

0.00 mm

22:30

17.2 C

1009.0 hpa

93 %

0.0 km/h aus 117

0.0 km/h aus ---

16.0 C

17.6 C

17.2 C

17.6 C

0 W/m

0.00 mm

22:35

17.2 C

1009.0 hpa

93 %

0.0 km/h aus 117

0.0 km/h aus ---

16.0 C

17.6 C

17.2 C

17.6 C

0 W/m

0.00 mm

22:40

17.1 C

1009.0 hpa

93 %

0.0 km/h aus 115

0.0 km/h aus ---

15.9 C

17.4 C

17.1 C

17.4 C

0 W/m

0.00 mm

22:45

17.1 C

1009.1 hpa

93 %

0.0 km/h aus 115

0.0 km/h aus ---

15.9 C

17.4 C

17.1 C

17.4 C

0 W/m

0.00 mm

22:50

17.0 C

1009.1 hpa

94 %

0.0 km/h aus 117

3.2 km/h aus ENE

16.0 C

17.4 C

17.0 C

17.4 C

0 W/m

0.00 mm

22:55

16.9 C

1009.1 hpa

93 %

3.2 km/h aus 116

6.4 km/h aus SSE

15.8 C

17.3 C

16.9 C

17.3 C

0 W/m

0.00 mm

23:00

16.8 C

1009.2 hpa

93 %

6.4 km/h aus 117

9.7 km/h aus SSE

15.7 C

17.2 C

16.8 C

17.2 C

0 W/m

0.00 mm

23:05

16.7 C

1009.2 hpa

93 %

6.4 km/h aus 114

9.7 km/h aus SSE

15.6 C

17.1 C

16.7 C

17.1 C

0 W/m

0.00 mm

23:10

16.7 C

1009.2 hpa

93 %

6.4 km/h aus 115

9.7 km/h aus SSE

15.5 C

17.0 C

16.7 C

17.0 C

0 W/m

0.00 mm

23:15

16.6 C

1009.5 hpa

93 %

6.4 km/h aus 117

8.0 km/h aus SSE

15.4 C

16.9 C

16.6 C

16.9 C

0 W/m

0.00 mm

23:20

16.5 C

1009.5 hpa

93 %

4.8 km/h aus 117

6.4 km/h aus SSE

15.4 C

16.8 C

16.5 C

16.8 C

0 W/m

0.00 mm

23:25

16.5 C

1009.5 hpa

93 %

4.8 km/h aus 116

6.4 km/h aus SSE

15.4 C

16.8 C

16.5 C

16.8 C

0 W/m

0.00 mm

23:30

16.4 C

1009.5 hpa

93 %

6.4 km/h aus 114

11.3 km/h aus S

15.3 C

16.8 C

16.4 C

16.8 C

0 W/m

0.00 mm

23:35

16.4 C

1009.5 hpa

93 %

6.4 km/h aus 117

12.9 km/h aus S

15.3 C

16.8 C

16.4 C

16.8 C

0 W/m

0.00 mm

23:40

16.4 C

1009.5 hpa

94 %

6.4 km/h aus 117

9.7 km/h aus S

15.5 C

16.8 C

16.4 C

16.8 C

0 W/m

0.00 mm

23:45

16.5 C

1009.6 hpa

94 %

4.8 km/h aus 116

8.0 km/h aus S

15.5 C

16.8 C

16.5 C

16.8 C

0 W/m

0.00 mm

23:50

16.5 C

1009.6 hpa

94 %

4.8 km/h aus 115

8.0 km/h aus S

15.5 C

16.8 C

16.5 C

16.8 C

0 W/m

0.00 mm

23:55

16.5 C

1009.6 hpa

94 %

4.8 km/h aus 114

6.4 km/h aus S

15.5 C

16.8 C

16.5 C

16.8 C

0 W/m

0.00 mm